Time,TemperatureF,DewpointF,PressureIn,WindDirection,WindDirectionDegrees,WindSpeedMPH,WindSpeedGustMPH,Humidity,HourlyPrecipIn,Conditions,Clouds,dailyrainin,SoftwareType,DateUTC
2013-03-24 00:02:00,1.0,-3.0,30.04,WNW,290,0.0,6.0,86,-99.99,,,-99.99,,2013-03-24 06:02:00,
2013-03-24 00:12:00,0.0,-3.0,30.04,WNW,290,0.0,0.0,87,-99.99,,,-99.99,,2013-03-24 06:12:00,
2013-03-24 00:17:00,0.0,-2.0,30.04,WNW,290,0.0,0.0,88,-99.99,,,-99.99,,2013-03-24 06:17:00,
2013-03-24 00:22:00,0.0,-3.0,30.04,WNW,290,0.0,0.0,88,-99.99,,,-99.99,,2013-03-24 06:22:00,
2013-03-24 00:27:00,0.0,-2.0,30.04,North,350,5.0,7.0,89,-99.99,,,-99.99,,2013-03-24 06:27:00,
2013-03-24 00:32:00,0.0,-2.0,30.04,WNW,300,0.0,7.0,88,-99.99,,,-99.99,,2013-03-24 06:32:00,
2013-03-24 00:42:00,-1.0,-4.0,30.04,NW,320,5.0,7.0,85,-99.99,,,-99.99,,2013-03-24 06:42:00,
2013-03-24 00:52:00,-2.0,-5.0,30.04,ENE,60,5.0,5.0,84,-99.99,,,-99.99,,2013-03-24 06:52:00,
2013-03-24 01:02:00,-2.0,-5.0,30.04,WNW,300,10.0,10.0,86,-99.99,,,-99.99,,2013-03-24 07:02:00,
2013-03-24 01:12:00,-2.0,-5.0,30.04,WNW,300,0.0,8.0,86,-99.99,,,-99.99,,2013-03-24 07:12:00,
2013-03-24 01:22:00,-3.0,-6.0,30.04,NNW,340,7.0,7.0,85,-99.99,,,-99.99,,2013-03-24 07:22:00,
2013-03-24 01:32:00,-3.0,-6.0,30.04,West,280,5.0,9.0,86,-99.99,,,-99.99,,2013-03-24 07:32:00,
2013-03-24 01:37:00,-4.0,-7.0,30.04,NNW,330,9.0,9.0,86,-99.99,,,-99.99,,2013-03-24 07:37:00,
2013-03-24 01:42:00,-4.0,-7.0,30.04,NNW,330,7.0,9.0,87,-99.99,,,-99.99,,2013-03-24 07:42:00,
2013-03-24 01:52:00,-4.0,-7.0,30.04,NNW,340,6.0,9.0,86,-99.99,,,-99.99,,2013-03-24 07:52:00,
2013-03-24 01:57:00,-4.0,-7.0,30.04,North,0,7.0,9.0,87,-99.99,,,-99.99,,2013-03-24 07:57:00,
2013-03-24 02:02:00,-4.0,-7.0,30.04,NNE,20,6.0,10.0,87,-99.99,,,-99.99,,2013-03-24 08:02:00,
2013-03-24 02:07:00,-5.0,-7.0,30.04,North,350,8.0,9.0,87,-99.99,,,-99.99,,2013-03-24 08:07:00,
2013-03-24 02:17:00,-5.0,-8.0,30.04,NNW,340,8.0,10.0,87,-99.99,,,-99.99,,2013-03-24 08:17:00,
2013-03-24 02:27:00,-5.0,-8.0,30.04,North,350,8.0,11.0,86,-99.99,,,-99.99,,2013-03-24 08:27:00,
2013-03-24 02:37:00,-7.0,-10.0,30.03,NNW,330,10.0,10.0,85,-99.99,,,-99.99,,2013-03-24 08:37:00,
2013-03-24 02:47:00,-7.0,-10.0,30.03,NNW,340,9.0,9.0,85,-99.99,,,-99.99,,2013-03-24 08:47:00,
2013-03-24 02:57:00,-7.0,-9.0,30.02,NW,310,9.0,11.0,88,-99.99,,,-99.99,,2013-03-24 08:57:00,
2013-03-24 03:07:00,-7.0,-10.0,30.02,NNW,340,10.0,10.0,87,-99.99,,,-99.99,,2013-03-24 09:07:00,
2013-03-24 03:12:00,-7.0,-10.0,30.02,NW,310,8.0,9.0,87,-99.99,,,-99.99,,2013-03-24 09:12:00,
2013-03-24 03:17:00,-7.0,-9.0,30.02,NW,310,12.0,12.0,88,-99.99,,,-99.99,,2013-03-24 09:17:00,
2013-03-24 03:27:00,-7.0,-9.0,30.02,North,350,8.0,11.0,88,-99.99,,,-99.99,,2013-03-24 09:27:00,
2013-03-24 03:32:00,-7.0,-10.0,30.01,North,0,7.0,11.0,87,-99.99,,,-99.99,,2013-03-24 09:32:00,
2013-03-24 03:37:00,-7.0,-10.0,30.01,NNW,340,10.0,10.0,86,-99.99,,,-99.99,,2013-03-24 09:37:00,
2013-03-24 03:42:00,-7.0,-10.0,30.01,NW,320,9.0,10.0,87,-99.99,,,-99.99,,2013-03-24 09:42:00,
2013-03-24 03:47:00,-8.0,-10.0,30.01,WNW,300,7.0,9.0,87,-99.99,,,-99.99,,2013-03-24 09:47:00,
2013-03-24 03:52:00,-8.0,-11.0,30.01,NNW,330,11.0,11.0,87,-99.99,,,-99.99,,2013-03-24 09:52:00,
2013-03-24 04:02:00,-8.0,-11.0,30.01,NW,320,10.0,10.0,88,-99.99,,,-99.99,,2013-03-24 10:02:00,
2013-03-24 04:12:00,-8.0,-11.0,30.01,WNW,300,5.0,7.0,88,-99.99,,,-99.99,,2013-03-24 10:12:00,
2013-03-24 04:22:00,-8.0,-10.0,30.00,NW,320,8.0,10.0,89,-99.99,,,-99.99,,2013-03-24 10:22:00,
2013-03-24 04:27:00,-8.0,-11.0,30.00,NNW,340,7.0,10.0,89,-99.99,,,-99.99,,2013-03-24 10:27:00,
2013-03-24 04:32:00,-9.0,-11.0,30.00,North,350,5.0,9.0,89,-99.99,,,-99.99,,2013-03-24 10:32:00,
2013-03-24 04:42:00,-10.0,-12.0,30.00,NNW,340,9.0,10.0,88,-99.99,,,-99.99,,2013-03-24 10:42:00,
2013-03-24 04:52:00,-9.0,-11.0,30.00,NNW,340,7.0,11.0,90,-99.99,,,-99.99,,2013-03-24 10:52:00,
2013-03-24 05:02:00,-9.0,-11.0,30.00,NNW,340,10.0,10.0,89,-99.99,,,-99.99,,2013-03-24 11:02:00,
2013-03-24 05:12:00,-9.0,-12.0,30.00,North,0,3.0,8.0,89,-99.99,,,-99.99,,2013-03-24 11:12:00,
2013-03-24 05:17:00,-9.0,-11.0,30.00,NW,310,5.0,8.0,89,-99.99,,,-99.99,,2013-03-24 11:17:00,
2013-03-24 05:22:00,-9.0,-11.0,30.00,NW,310,8.0,8.0,89,-99.99,,,-99.99,,2013-03-24 11:22:00,
2013-03-24 05:32:00,-9.0,-11.0,30.00,WNW,300,6.0,8.0,89,-99.99,,,-99.99,,2013-03-24 11:32:00,
2013-03-24 05:42:00,-9.0,-11.0,30.00,NW,320,7.0,8.0,89,-99.99,,,-99.99,,2013-03-24 11:42:00,
2013-03-24 05:47:00,-9.0,-11.0,30.01,NW,310,10.0,10.0,90,-99.99,,,-99.99,,2013-03-24 11:47:00,
2013-03-24 05:52:00,-9.0,-11.0,30.01,North,0,6.0,10.0,90,-99.99,,,-99.99,,2013-03-24 11:52:00,
2013-03-24 05:57:00,-8.0,-10.0,30.01,North,0,0.0,8.0,90,-99.99,,,-99.99,,2013-03-24 11:57:00,
2013-03-24 06:02:00,-8.0,-10.0,30.01,North,0,0.0,5.0,91,-99.99,,,-99.99,,2013-03-24 12:02:00,
2013-03-24 06:07:00,-8.0,-10.0,30.01,North,0,4.0,8.0,90,-99.99,,,-99.99,,2013-03-24 12:07:00,
2013-03-24 06:12:00,-8.0,-10.0,30.01,North,0,8.0,8.0,89,-99.99,,,-99.99,,2013-03-24 12:12:00,
2013-03-24 06:17:00,-8.0,-10.0,30.01,North,350,5.0,8.0,89,-99.99,,,-99.99,,2013-03-24 12:17:00,
2013-03-24 06:22:00,-8.0,-10.0,30.00,NNE,20,0.0,8.0,90,-99.99,,,-99.99,,2013-03-24 12:22:00,
2013-03-24 06:32:00,-6.0,-8.0,30.00,NNE,20,0.0,0.0,91,-99.99,,,-99.99,,2013-03-24 12:32:00,
2013-03-24 06:42:00,-5.0,-7.0,30.00,NNE,20,0.0,0.0,92,-99.99,,,-99.99,,2013-03-24 12:42:00,
2013-03-24 06:47:00,-5.0,-6.0,30.01,NNE,20,0.0,0.0,93,-99.99,,,-99.99,,2013-03-24 12:47:00,
2013-03-24 06:52:00,-5.0,-6.0,30.01,NNE,20,0.0,0.0,93,-99.99,,,-99.99,,2013-03-24 12:52:00,
2013-03-24 06:57:00,-4.0,-6.0,30.00,NNE,20,0.0,0.0,93,-99.99,,,-99.99,,2013-03-24 12:57:00,
2013-03-24 07:07:00,-4.0,-5.0,30.00,North,0,6.0,6.0,93,-99.99,,,-99.99,,2013-03-24 13:07:00,
2013-03-24 07:17:00,-4.0,-5.0,30.00,NW,310,0.0,6.0,93,-99.99,,,-99.99,,2013-03-24 13:17:00,
2013-03-24 07:22:00,-4.0,-5.0,30.00,North,0,4.0,5.0,93,-99.99,,,-99.99,,2013-03-24 13:22:00,
2013-03-24 07:32:00,-3.0,-5.0,30.00,WNW,300,3.0,6.0,93,-99.99,,,-99.99,,2013-03-24 13:32:00,
2013-03-24 07:42:00,-3.0,-4.0,30.01,NW,310,4.0,7.0,93,-99.99,,,-99.99,,2013-03-24 13:42:00,
2013-03-24 07:47:00,-3.0,-4.0,30.01,WNW,300,7.0,7.0,93,-99.99,,,-99.99,,2013-03-24 13:47:00,
2013-03-24 07:52:00,-3.0,-4.0,30.01,NW,320,3.0,6.0,93,-99.99,,,-99.99,,2013-03-24 13:52:00,
2013-03-24 08:07:00,-2.0,-3.0,30.01,NW,320,0.0,0.0,93,-99.99,,,-99.99,,2013-03-24 14:07:00,
2013-03-24 08:12:00,-1.0,-3.0,30.01,NW,320,0.0,3.0,93,-99.99,,,-99.99,,2013-03-24 14:12:00,
2013-03-24 08:22:00,0.0,-2.0,30.01,NW,320,0.0,0.0,93,-99.99,,,-99.99,,2013-03-24 14:22:00,
2013-03-24 08:32:00,0.0,-2.0,30.01,NW,320,0.0,0.0,91,-99.99,,,-99.99,,2013-03-24 14:32:00,
2013-03-24 08:37:00,0.0,-2.0,30.01,NW,320,0.0,0.0,91,-99.99,,,-99.99,,2013-03-24 14:37:00,
2013-03-24 08:47:00,1.0,-1.0,30.01,NW,320,0.0,0.0,91,-99.99,,,-99.99,,2013-03-24 14:47:00,
2013-03-24 08:52:00,2.0,0.0,30.00,NW,320,0.0,0.0,92,-99.99,,,-99.99,,2013-03-24 14:52:00,
2013-03-24 09:02:00,2.0,0.0,30.01,NW,320,0.0,0.0,90,-99.99,,,-99.99,,2013-03-24 15:02:00,
2013-03-24 09:12:00,3.0,0.0,30.00,SSW,210,0.0,3.0,89,-99.99,,,-99.99,,2013-03-24 15:12:00,
2013-03-24 09:17:00,3.0,1.0,30.01,SSW,210,0.0,0.0,90,-99.99,,,-99.99,,2013-03-24 15:17:00,
2013-03-24 09:22:00,4.0,1.0,30.01,SSW,210,0.0,0.0,89,-99.99,,,-99.99,,2013-03-24 15:22:00,
2013-03-24 09:27:00,4.0,1.0,30.01,SSW,210,0.0,0.0,88,-99.99,,,-99.99,,2013-03-24 15:27:00,
2013-03-24 09:37:00,6.0,2.0,30.01,SSW,210,0.0,0.0,85,-99.99,,,-99.99,,2013-03-24 15:37:00,
2013-03-24 09:47:00,6.0,2.0,30.01,SSW,210,0.0,0.0,85,-99.99,,,-99.99,,2013-03-24 15:47:00,
2013-03-24 09:52:00,7.0,3.0,30.01,South,180,5.0,0.0,83,-99.99,,,-99.99,,2013-03-24 15:52:00,
2013-03-24 09:57:00,7.0,3.0,30.01,SSW,210,0.0,5.0,83,-99.99,,,-99.99,,2013-03-24 15:57:00,
2013-03-24 10:02:00,8.0,4.0,30.01,SSW,200,3.0,5.0,82,-99.99,,,-99.99,,2013-03-24 16:02:00,
2013-03-24 10:07:00,9.0,4.0,30.01,SSE,160,0.0,4.0,80,-99.99,,,-99.99,,2013-03-24 16:07:00,
2013-03-24 10:17:00,10.0,4.0,30.01,SSE,150,0.0,5.0,77,-99.99,,,-99.99,,2013-03-24 16:17:00,
2013-03-24 10:22:00,10.0,5.0,30.01,SSW,200,6.0,6.0,78,-99.99,,,-99.99,,2013-03-24 16:22:00,
2013-03-24 10:27:00,11.0,5.0,30.01,South,190,5.0,5.0,77,-99.99,,,-99.99,,2013-03-24 16:27:00,
2013-03-24 10:32:00,13.0,7.0,30.01,SSW,200,6.0,6.0,77,-99.99,,,-99.99,,2013-03-24 16:32:00,
2013-03-24 10:42:00,13.0,7.0,30.01,SSW,210,3.0,5.0,76,-99.99,,,-99.99,,2013-03-24 16:42:00,
2013-03-24 10:47:00,14.0,7.0,30.01,South,190,3.0,6.0,75,-99.99,,,-99.99,,2013-03-24 16:47:00,
2013-03-24 10:52:00,14.0,8.0,30.01,South,190,5.0,5.0,76,-99.99,,,-99.99,,2013-03-24 16:52:00,
2013-03-24 10:57:00,15.0,9.0,30.01,South,190,2.0,5.0,76,-99.99,,,-99.99,,2013-03-24 16:57:00,
2013-03-24 11:02:00,15.0,7.0,30.01,South,190,0.0,4.0,72,-99.99,,,-99.99,,2013-03-24 17:02:00,
2013-03-24 11:12:00,15.0,9.0,30.01,South,170,4.0,6.0,76,-99.99,,,-99.99,,2013-03-24 17:12:00,
2013-03-24 11:22:00,16.0,9.0,30.01,SSW,200,3.0,6.0,74,-99.99,,,-99.99,,2013-03-24 17:22:00,
2013-03-24 11:27:00,17.0,10.0,30.01,South,190,5.0,6.0,74,-99.99,,,-99.99,,2013-03-24 17:27:00,
2013-03-24 11:37:00,18.0,10.0,30.01,South,170,6.0,6.0,72,-99.99,,,-99.99,,2013-03-24 17:37:00,
2013-03-24 11:47:00,18.0,11.0,30.00,SSW,200,9.0,9.0,73,-99.99,,,-99.99,,2013-03-24 17:47:00,
2013-03-24 11:52:00,19.0,12.0,30.01,SSW,210,0.0,9.0,75,-99.99,,,-99.99,,2013-03-24 17:52:00,
2013-03-24 12:02:00,21.0,13.0,30.00,South,170,7.0,8.0,71,-99.99,,,-99.99,,2013-03-24 18:02:00,
2013-03-24 12:07:00,21.0,13.0,30.00,South,170,7.0,8.0,69,-99.99,,,-99.99,,2013-03-24 18:07:00,
2013-03-24 12:17:00,21.0,12.0,29.99,SSE,160,9.0,9.0,68,-99.99,,,-99.99,,2013-03-24 18:17:00,
2013-03-24 12:22:00,21.0,11.0,29.99,South,180,1.0,9.0,66,-99.99,,,-99.99,,2013-03-24 18:22:00,
2013-03-24 12:32:00,20.0,10.0,29.99,SW,230,3.0,8.0,62,-99.99,,,-99.99,,2013-03-24 18:32:00,
2013-03-24 12:37:00,21.0,10.0,29.99,NNW,330,7.0,10.0,62,-99.99,,,-99.99,,2013-03-24 18:37:00,
2013-03-24 12:52:00,22.0,9.0,29.99,NNE,20,6.0,16.0,56,-99.99,,,-99.99,,2013-03-24 18:52:00,
2013-03-24 13:02:00,23.0,9.0,29.99,NNE,20,7.0,13.0,56,-99.99,,,-99.99,,2013-03-24 19:02:00,
2013-03-24 13:07:00,23.0,8.0,29.99,West,280,4.0,13.0,54,-99.99,,,-99.99,,2013-03-24 19:07:00,
2013-03-24 13:12:00,23.0,9.0,29.99,NNE,30,7.0,12.0,55,-99.99,,,-99.99,,2013-03-24 19:12:00,
2013-03-24 13:17:00,23.0,8.0,29.99,NNE,30,9.0,13.0,54,-99.99,,,-99.99,,2013-03-24 19:17:00,
2013-03-24 13:22:00,22.0,8.0,29.99,North,350,8.0,13.0,53,-99.99,,,-99.99,,2013-03-24 19:22:00,
2013-03-24 13:32:00,23.0,9.0,29.98,NE,40,7.0,9.0,54,-99.99,,,-99.99,,2013-03-24 19:32:00,
2013-03-24 13:37:00,22.0,8.0,29.98,North,0,6.0,11.0,54,-99.99,,,-99.99,,2013-03-24 19:37:00,
2013-03-24 13:42:00,22.0,8.0,29.98,NNE,20,6.0,18.0,54,-99.99,,,-99.99,,2013-03-24 19:42:00,
2013-03-24 13:52:00,22.0,8.0,29.98,NNE,20,10.0,15.0,54,-99.99,,,-99.99,,2013-03-24 19:52:00,
2013-03-24 13:57:00,22.0,8.0,29.98,North,0,5.0,14.0,54,-99.99,,,-99.99,,2013-03-24 19:57:00,
2013-03-24 14:07:00,22.0,8.0,29.97,NNW,330,13.0,13.0,54,-99.99,,,-99.99,,2013-03-24 20:07:00,
2013-03-24 14:17:00,22.0,9.0,29.97,NNW,330,13.0,13.0,56,-99.99,,,-99.99,,2013-03-24 20:17:00,
2013-03-24 14:22:00,22.0,8.0,29.97,North,350,13.0,17.0,56,-99.99,,,-99.99,,2013-03-24 20:22:00,
2013-03-24 14:32:00,23.0,9.0,29.97,WNW,290,7.0,17.0,54,-99.99,,,-99.99,,2013-03-24 20:32:00,
2013-03-24 14:42:00,23.0,9.0,29.97,NW,320,14.0,18.0,54,-99.99,,,-99.99,,2013-03-24 20:42:00,
2013-03-24 14:47:00,22.0,9.0,29.97,North,0,11.0,20.0,55,-99.99,,,-99.99,,2013-03-24 20:47:00,
2013-03-24 14:57:00,22.0,9.0,29.97,NNE,20,14.0,19.0,57,-99.99,,,-99.99,,2013-03-24 20:57:00,
2013-03-24 15:07:00,22.0,9.0,29.97,NNE,20,10.0,17.0,57,-99.99,,,-99.99,,2013-03-24 21:07:00,
2013-03-24 15:17:00,23.0,10.0,29.97,NNW,340,9.0,16.0,59,-99.99,,,-99.99,,2013-03-24 21:17:00,
2013-03-24 15:22:00,23.0,11.0,29.97,NW,320,12.0,17.0,59,-99.99,,,-99.99,,2013-03-24 21:22:00,
2013-03-24 15:32:00,23.0,11.0,29.97,North,0,12.0,14.0,59,-99.99,,,-99.99,,2013-03-24 21:32:00,
2013-03-24 15:42:00,22.0,11.0,29.97,NNW,330,10.0,15.0,60,-99.99,,,-99.99,,2013-03-24 21:42:00,
2013-03-24 15:47:00,22.0,11.0,29.97,North,350,10.0,14.0,60,-99.99,,,-99.99,,2013-03-24 21:47:00,
2013-03-24 15:57:00,22.0,11.0,29.97,NNW,340,12.0,15.0,62,-99.99,,,-99.99,,2013-03-24 21:57:00,
2013-03-24 16:07:00,21.0,12.0,29.97,NNE,30,8.0,13.0,65,-99.99,,,-99.99,,2013-03-24 22:07:00,
2013-03-24 16:17:00,22.0,11.0,29.98,NNE,20,6.0,17.0,63,-99.99,,,-99.99,,2013-03-24 22:17:00,
2013-03-24 16:22:00,22.0,11.0,29.98,North,350,8.0,17.0,63,-99.99,,,-99.99,,2013-03-24 22:22:00,
2013-03-24 16:27:00,22.0,12.0,29.98,North,0,6.0,12.0,63,-99.99,,,-99.99,,2013-03-24 22:27:00,
2013-03-24 16:32:00,22.0,12.0,29.98,NE,40,6.0,11.0,64,-99.99,,,-99.99,,2013-03-24 22:32:00,
2013-03-24 16:47:00,22.0,12.0,29.98,NW,320,7.0,12.0,63,-99.99,,,-99.99,,2013-03-24 22:47:00,
2013-03-24 16:52:00,22.0,11.0,29.98,WNW,290,9.0,12.0,63,-99.99,,,-99.99,,2013-03-24 22:52:00,
2013-03-24 16:57:00,22.0,12.0,29.99,NNW,330,8.0,11.0,64,-99.99,,,-99.99,,2013-03-24 22:57:00,
2013-03-24 17:07:00,22.0,12.0,29.99,North,350,7.0,10.0,65,-99.99,,,-99.99,,2013-03-24 23:07:00,
2013-03-24 17:17:00,22.0,12.0,29.99,NNE,30,0.0,5.0,65,-99.99,,,-99.99,,2013-03-24 23:17:00,
2013-03-24 17:27:00,22.0,11.0,30.00,NNW,340,9.0,13.0,63,-99.99,,,-99.99,,2013-03-24 23:27:00,
2013-03-24 17:32:00,22.0,11.0,29.99,North,0,0.0,11.0,60,-99.99,,,-99.99,,2013-03-24 23:32:00,
2013-03-24 17:42:00,22.0,10.0,30.00,North,350,15.0,16.0,58,-99.99,,,-99.99,,2013-03-24 23:42:00,
2013-03-24 17:52:00,21.0,9.0,30.00,North,10,12.0,14.0,59,-99.99,,,-99.99,,2013-03-24 23:52:00,
2013-03-24 17:57:00,21.0,8.0,30.00,North,350,8.0,14.0,57,-99.99,,,-99.99,,2013-03-24 23:57:00,
2013-03-24 18:07:00,21.0,8.0,30.00,NNW,340,17.0,17.0,56,-99.99,,,-99.99,,2013-03-25 00:07:00,
2013-03-24 18:17:00,21.0,8.0,30.01,NNE,30,10.0,14.0,58,-99.99,,,-99.99,,2013-03-25 00:17:00,
2013-03-24 18:22:00,20.0,7.0,30.01,North,10,7.0,14.0,56,-99.99,,,-99.99,,2013-03-25 00:22:00,
2013-03-24 18:32:00,20.0,7.0,30.01,North,0,7.0,16.0,57,-99.99,,,-99.99,,2013-03-25 00:32:00,
2013-03-24 18:37:00,19.0,6.0,30.02,North,10,17.0,17.0,57,-99.99,,,-99.99,,2013-03-25 00:37:00,
2013-03-24 18:47:00,18.0,8.0,30.03,North,10,3.0,14.0,63,-99.99,,,-99.99,,2013-03-25 00:47:00,
2013-03-24 18:52:00,18.0,8.0,30.03,North,0,6.0,11.0,65,-99.99,,,-99.99,,2013-03-25 00:52:00,
2013-03-24 18:57:00,17.0,8.0,30.03,NW,320,9.0,13.0,66,-99.99,,,-99.99,,2013-03-25 00:57:00,
2013-03-24 19:02:00,17.0,8.0,30.03,North,0,6.0,13.0,66,-99.99,,,-99.99,,2013-03-25 01:02:00,
2013-03-24 19:07:00,17.0,8.0,30.03,NW,310,7.0,16.0,66,-99.99,,,-99.99,,2013-03-25 01:07:00,
2013-03-24 19:22:00,16.0,7.0,30.03,NE,40,3.0,6.0,65,-99.99,,,-99.99,,2013-03-25 01:22:00,
2013-03-24 19:32:00,16.0,6.0,30.03,North,0,5.0,11.0,64,-99.99,,,-99.99,,2013-03-25 01:32:00,
2013-03-24 19:42:00,15.0,5.0,30.04,NW,310,6.0,8.0,65,-99.99,,,-99.99,,2013-03-25 01:42:00,
2013-03-24 19:47:00,14.0,5.0,30.04,NW,320,6.0,8.0,66,-99.99,,,-99.99,,2013-03-25 01:47:00,
2013-03-24 19:52:00,13.0,4.0,30.04,WNW,290,7.0,7.0,67,-99.99,,,-99.99,,2013-03-25 01:52:00,
2013-03-24 19:57:00,13.0,4.0,30.04,WNW,300,9.0,9.0,67,-99.99,,,-99.99,,2013-03-25 01:57:00,
2013-03-24 20:07:00,12.0,3.0,30.05,WNW,300,5.0,8.0,69,-99.99,,,-99.99,,2013-03-25 02:07:00,
2013-03-24 20:17:00,11.0,3.0,30.05,WNW,300,6.0,6.0,70,-99.99,,,-99.99,,2013-03-25 02:17:00,
2013-03-24 20:27:00,11.0,3.0,30.06,North,350,3.0,8.0,70,-99.99,,,-99.99,,2013-03-25 02:27:00,
2013-03-24 20:32:00,11.0,3.0,30.06,NW,320,3.0,7.0,70,-99.99,,,-99.99,,2013-03-25 02:32:00,
2013-03-24 20:37:00,11.0,3.0,30.06,NW,320,4.0,6.0,70,-99.99,,,-99.99,,2013-03-25 02:37:00,
2013-03-24 20:47:00,11.0,3.0,30.06,NW,310,5.0,6.0,71,-99.99,,,-99.99,,2013-03-25 02:47:00,
2013-03-24 20:52:00,10.0,3.0,30.06,NNW,340,5.0,6.0,71,-99.99,,,-99.99,,2013-03-25 02:52:00,
2013-03-24 20:57:00,10.0,3.0,30.06,NE,40,3.0,6.0,71,-99.99,,,-99.99,,2013-03-25 02:57:00,
2013-03-24 21:02:00,9.0,1.0,30.06,NE,40,7.0,7.0,69,-99.99,,,-99.99,,2013-03-25 03:02:00,
2013-03-24 21:07:00,9.0,1.0,30.07,North,0,5.0,7.0,70,-99.99,,,-99.99,,2013-03-25 03:07:00,
2013-03-24 21:12:00,8.0,1.0,30.07,North,10,0.0,6.0,71,-99.99,,,-99.99,,2013-03-25 03:12:00,
2013-03-24 21:22:00,8.0,1.0,30.08,WSW,250,0.0,2.0,73,-99.99,,,-99.99,,2013-03-25 03:22:00,
2013-03-24 21:27:00,7.0,1.0,30.09,WSW,250,0.0,0.0,75,-99.99,,,-99.99,,2013-03-25 03:27:00,
2013-03-24 21:32:00,7.0,1.0,30.09,WSW,250,0.0,0.0,76,-99.99,,,-99.99,,2013-03-25 03:32:00,
2013-03-24 21:37:00,6.0,1.0,30.09,WSW,250,0.0,0.0,77,-99.99,,,-99.99,,2013-03-25 03:37:00,
2013-03-24 21:42:00,6.0,0.0,30.09,NE,40,0.0,4.0,76,-99.99,,,-99.99,,2013-03-25 03:42:00,
2013-03-24 21:47:00,5.0,-1.0,30.09,ENE,60,0.0,5.0,75,-99.99,,,-99.99,,2013-03-25 03:47:00,
2013-03-24 21:52:00,5.0,-1.0,30.09,NNE,20,3.0,0.0,76,-99.99,,,-99.99,,2013-03-25 03:52:00,
2013-03-24 22:02:00,5.0,-1.0,30.09,NE,50,4.0,5.0,75,-99.99,,,-99.99,,2013-03-25 04:02:00,
2013-03-24 22:07:00,4.0,-2.0,30.09,NNW,330,6.0,6.0,75,-99.99,,,-99.99,,2013-03-25 04:07:00,
2013-03-24 22:12:00,4.0,-2.0,30.09,North,10,5.0,7.0,75,-99.99,,,-99.99,,2013-03-25 04:12:00,
2013-03-24 22:17:00,3.0,-3.0,30.09,North,350,7.0,8.0,74,-99.99,,,-99.99,,2013-03-25 04:17:00,
2013-03-24 22:22:00,3.0,-3.0,30.09,North,0,7.0,7.0,75,-99.99,,,-99.99,,2013-03-25 04:22:00,
2013-03-24 22:32:00,3.0,-4.0,30.09,NNW,330,7.0,8.0,75,-99.99,,,-99.99,,2013-03-25 04:32:00,
2013-03-24 22:42:00,3.0,-3.0,30.09,NNE,20,0.0,9.0,75,-99.99,,,-99.99,,2013-03-25 04:42:00,
2013-03-24 22:47:00,3.0,-3.0,30.09,WNW,290,0.0,4.0,76,-99.99,,,-99.99,,2013-03-25 04:47:00,
2013-03-24 22:57:00,3.0,-3.0,30.09,NW,320,0.0,4.0,76,-99.99,,,-99.99,,2013-03-25 04:57:00,
2013-03-24 23:07:00,2.0,-4.0,30.10,NW,320,0.0,0.0,75,-99.99,,,-99.99,,2013-03-25 05:07:00,
2013-03-24 23:17:00,1.0,-4.0,30.10,ENE,60,0.0,0.0,77,-99.99,,,-99.99,,2013-03-25 05:17:00,
2013-03-24 23:27:00,1.0,-4.0,30.11,NNE,30,0.0,4.0,78,-99.99,,,-99.99,,2013-03-25 05:27:00,
2013-03-24 23:32:00,1.0,-4.0,30.11,NNE,30,0.0,0.0,79,-99.99,,,-99.99,,2013-03-25 05:32:00,
2013-03-24 23:37:00,1.0,-4.0,30.10,NW,320,0.0,2.0,79,-99.99,,,-99.99,,2013-03-25 05:37:00,
2013-03-24 23:47:00,1.0,-4.0,30.11,NW,320,0.0,0.0,78,-99.99,,,-99.99,,2013-03-25 05:47:00,
2013-03-24 23:57:00,1.0,-5.0,30.11,NW,320,0.0,0.0,76,-99.99,,,-99.99,,2013-03-25 05:57:00,